EHI
0 19 40 29 7 1 0 0 0 0 0 0 0 0 0 0 0 0 0 0 0 0 0 0 0 0 0 0 0 0 0 0 0 0 0 0 0 0 0 0 0 0 0
1 14 31 24 7 1 0 0 0 0 0 0 0 0 0 0 0 0 0 0 0 0 0 0 0 0 0 0 0 0 0 0 0 0 0 0 0 0 0 0 0 0 0
0 6 13 14 7 1 0 0 0 0 0 0 0 0 0 0 0 0 0 0 0 0 0 0 0 0 0 0 0 0 0 0 0 0 0 0 0 0 0 0 0 0 0
0 0 4 8 6 2 0 0 0 0 0 0 0 0 0 0 0 0 0 0 0 0 0 0 0 0 0 0 0 0 0 0 0 0 0 0 0 0 0 0 0 0 0
0 0 3 8 7 3 0 0 0 0 0 0 0 0 0 0 0 0 0 0 0 0 0 0 0 0 0 0 0 0 0 0 0 0 0 0 0 0 0 0 0 0 0
0 0 4 9 10 4 1 0 0 0 0 0 0 0 0 0 0 0 0 0 0 0 0 0 0 0 0 0 0 0 0 0 0 0 0 0 0 0 0 0 0 0 0
0 0 3 10 12 6 1 0 0 0 0 0 0 0 0 0 0 0 0 0 0 0 0 0 0 0 0 0 0 0 0 0 0 0 0 0 0 0 0 0 0 0 0
0 0 2 8 11 7 3 1 0 0 0 0 0 0 0 0 0 0 0 0 0 0 0 0 0 0 0 0 0 0 0 0 0 0 0 0 0 0 0 0 0 0 0
0 0 1 3 5 5 2 1 0 0 0 0 0 0 0 0 0 0 0 0 0 0 0 0 0 0 0 0 0 0 0 0 0 0 0 0 0 0 0 0 0 0 0
0 0 0 0 0 1 1 0 0 0 0 0 0 0 0 0 0 0 0 0 0 0 0 0 0 0 0 0 0 0 0 0 0 0 0 0 0 0 0 0 0 0 0
0 0 0 0 0 0 0 0 0 0 0 0 0 0 0 0 0 0 0 0 0 0 0 0 0 0 0 0 0 0 0 0 0 0 0 0 0 0 0 0 0 0 0
0 0 0 0 0 0 0 0 0 0 0 0 0 0 0 0 0 0 0 0 0 0 0 0 0 0 0 0 0 0 0 0 0 0 0 0 0 0 0 0 0 0 0
0 0 0 0 0 0 0 0 0 0 0 0 0 0 0 0 0 0 0 0 0 0 0 0 0 0 0 0 0 0 0 0 0 0 0 0 0 0 0 0 0 0 0
0 0 0 0 0 0 0 0 0 0 0 0 0 0 0 0 0 0 0 0 0 0 0 0 0 0 0 0 0 0 0 0 0 0 0 0 0 0 0 0 0 0 0
0 0 0 0 0 0 0 0 0 0 0 0 0 0 0 0 0 0 0 0 0 0 0 0 0 0 0 0 0 0 0 0 0 0 0 0 0 0 0 0 0 0 0
0 0 0 0 0 0 0 0 0 0 0 0 0 0 0 0 0 0 0 0 0 0 0 0 0 0 0 0 0 0 0 0 0 0 0 0 0 0 0 0 0 0 0
0 0 0 0 0 0 0 0 0 0 0 0 0 0 0 0 0 0 0 0 0 0 0 0 0 0 0 0 0 0 0 0 0 0 0 0 0 0 0 0 0 0 0
0 0 0 0 0 0 0 0 0 0 0 0 0 0 0 0 0 0 0 0 0 0 0 0 0 0 0 0 0 0 0 0 0 0 0 0 0 0 0 0 0 0 0
0 0 0 0 0 0 0 0 0 0 0 0 0 0 0 0 0 0 0 0 0 0 0 0 0 0 0 0 0 0 0 0 0 0 0 0 0 0 0 0 0 0 0
0 0 0 0 0 0 0 0 0 0 0 0 0 0 0 0 0 0 0 0 0 0 0 0 0 0 0 0 0 0 0 0 0 0 0 0 0 0 0 0 0 0 0
0 0 0 0 0 0 0 0 0 0 0 0 0 0 0 0 0 0 0 0 0 0 0 0 0 0 0 0 0 0 0 0 0 0 0 0 0 0 0 0 0 0 0
0 0 0 0 0 0 0 0 0 0 0 0 0 0 0 0 0 0 0 0 0 0 0 0 0 0 0 0 0 0 0 0 0 0 0 0 0 0 0 0 0 0 0
0 0 0 0 0 0 0 0 0 0 0 0 0 0 0 0 0 0 0 0 0 0 0 0 0 0 0 0 0 0 0 0 0 0 0 0 0 0 0 0 0 0 0
0 0 0 0 0 0 0 0 0 0 0 0 0 0 0 0 0 0 0 0 0 0 0 0 0 0 0 0 0 0 0 0 0 0 0 0 0 0 0 0 0 0 0
0 0 0 0 0 0 0 0 0 0 0 0 0 0 0 0 0 0 0 0 0 0 0 0 0 0 0 0 0 0 0 0 0 0 0 0 0 0 0 0 0 0 0
0 0 0 0 0 0 0 0 0 0 0 0 0 0 0 0 0 0 0 0 0 0 0 0 0 0 0 0 0 0 0 0 0 0 0 0 0 0 0 0 0 0 0
Wind_Speed
6 9 19 18 17 16 15 15 13 12 10 10 10 9 8 9 9 8 7 6 6 6 6 7 7 7 6 7 7 6 6 5 4 4 5 5 5 5 4 1 0 2 1
11 11 19 18 17 16 16 15 13 12 10 10 10 9 8 8 8 7 7 6 6 5 5 5 6 6 6 6 6 5 4 2 1 3 5 5 7 8 7 5 3 2 2
14 13 16 17 17 17 16 15 13 12 11 10 10 9 9 8 8 8 8 7 5 4 4 3 4 5 5 5 4 3 2 1 1 4 6 4 6 9 8 8 5 5 5
14 12 13 16 17 17 16 15 13 12 10 9 9 9 8 8 9 8 8 6 5 4 3 3 3 3 3 2 2 1 0 2 3 5 4 4 5 8 6 8 7 7 7
11 10 12 17 17 17 16 15 13 12 10 9 8 8 7 8 9 9 8 7 5 4 3 2 2 1 1 1 2 3 4 5 4 5 4 5 4 9 7 8 8 8 8
9 8 12 16 17 17 16 15 14 12 10 9 8 7 6 6 7 9 9 7 6 4 3 1 0 1 2 3 5 6 7 7 4 3 4 5 4 10 11 10 8 8 9
9 8 11 16 17 17 16 15 14 12 11 9 8 7 5 4 6 9 9 8 6 4 2 1 2 3 4 5 6 7 7 6 4 4 4 5 6 12 12 12 11 10 10
11 9 10 16 15 16 16 15 14 12 11 10 9 7 5 5 7 9 9 8 7 5 3 3 4 5 6 7 8 9 8 7 6 5 5 5 10 13 13 14 13 12 12
10 9 8 9 11 14 14 14 13 12 11 10 9 8 6 5 7 8 9 8 7 6 5 5 6 7 7 8 9 10 9 9 6 4 6 5 11 14 14 15 15 14 13
8 9 9 8 8 8 9 12 12 11 10 10 9 8 7 6 6 7 7 7 8 7 7 7 8 8 9 10 11 11 10 9 6 6 5 7 14 15 15 16 16 15 15
7 7 9 9 8 8 8 10 10 11 10 10 8 8 7 3 3 3 6 8 9 10 9 9 9 9 9 9 11 11 9 4 5 5 5 11 16 16 16 16 16 16 15
11 10 9 10 10 8 8 6 5 5 6 5 4 5 4 3 3 4 7 11 11 10 9 10 10 9 7 4 6 8 4 5 5 5 6 15 17 17 17 16 15 16 17
10 11 11 11 10 10 6 5 4 3 4 5 5 5 3 3 2 2 2 3 5 5 4 5 5 3 3 3 4 4 4 4 3 4 6 14 16 17 17 17 15 15 16
8 10 12 12 10 10 8 6 6 4 4 4 5 5 3 2 2 1 1 1 1 1 2 2 2 3 4 4 4 4 4 3 3 3 4 10 13 15 16 17 17 16 16
10 12 11 12 12 10 8 6 6 5 5 5 4 4 5 3 3 2 1 1 1 1 1 2 2 3 4 4 5 5 5 5 4 4 4 9 13 15 16 16 16 17 16
6 9 8 10 10 10 8 6 5 5 4 4 3 4 5 4 4 4 4 3 3 3 3 4 4 4 4 4 6 6 5 5 5 6 5 7 12 14 16 17 18 18 18
3 4 7 8 8 9 8 7 4 4 5 5 5 5 6 6 6 5 5 5 4 4 5 5 5 4 5 5 6 6 5 5 6 6 5 4 5 10 16 18 19 20 20
4 4 5 6 7 8 7 6 6 6 7 6 6 7 9 9 8 7 5 5 4 5 4 4 4 4 4 5 5 5 5 5 6 5 4 4 4 5 10 18 20 20 21
4 5 5 7 9 10 11 10 9 8 8 7 7 7 9 9 9 7 5 4 5 5 5 4 4 3 4 5 5 5 5 4 4 4 5 5 5 5 5 12 19 20 21
4 5 6 8 11 13 11 10 9 10 7 7 7 8 9 8 8 7 5 6 5 5 5 4 4 4 3 4 5 6 6 4 2 2 4 5 5 7 7 9 9 13 21
6 7 8 11 10 11 9 8 8 6 6 7 7 8 9 8 8 7 5 6 5 5 5 5 4 4 4 4 4 5 5 4 3 3 5 5 6 7 8 10 9 8 8
7 8 9 10 9 8 8 7 6 6 6 6 5 8 8 8 7 7 6 5 5 4 6 6 5 3 3 4 3 3 5 6 5 7 5 4 5 6 8 10 8 7 7
8 9 10 10 10 11 11 11 10 7 5 4 5 5 6 7 7 6 6 5 5 4 4 4 4 4 3 3 2 2 3 4 6 4 3 3 5 6 5 6 8 7 9
8 9 10 11 11 10 10 11 12 8 6 4 4 4 6 7 7 6 6 5 4 3 4 3 3 2 2 2 2 1 2 3 4 6 5 4 6 6 6 8 7 7 8
9 10 10 11 10 9 9 10 10 9 6 5 5 7 6 5 6 6 5 4 4 3 3 3 3 3 2 2 2 2 2 3 4 5 9 7 6 5 6 6 6 6 7
9 10 10 12 10 9 10 9 11 11 10 9 7 5 4 3 4 5 4 4 3 3 3 3 3 4 3 3 3 3 2 3 4 4 9 12 9 6 7 6 7 6 6
Wind_Direction
164 168 161 159 155 151 146 142 136 131 129 128 127 124 125 127 123 116 112 106 96 83 67 61 54 65 88 108 112 107 98 85 61 28 3 345 329 310 292 259 307 321 278
156 167 162 162 159 156 151 147 142 139 137 136 135 132 129 128 124 117 112 108 98 88 69 56 53 58 75 99 113 118 114 102 63 351 336 329 314 295 265 246 242 256 264
153 165 164 166 163 159 155 152 149 147 145 144 142 141 138 136 133 122 116 109 100 90 78 66 57 62 70 89 106 119 123 116 339 319 326 327 311 301 246 235 241 249 255
156 164 167 169 166 163 160 158 156 154 154 153 152 151 150 148 145 136 131 121 109 100 91 80 70 68 71 78 82 84 333 312 321 316 329 324 320 313 241 228 240 251 252
156 162 169 170 169 167 165 163 162 161 160 159 160 158 155 160 159 154 146 138 127 118 107 91 73 53 2 325 309 299 294 299 309 318 321 317 315 309 271 246 253 265 265
158 163 170 171 172 170 169 169 167 166 165 165 168 168 169 171 177 169 158 151 144 135 128 120 29 324 306 299 295 293 294 302 315 303 297 299 300 302 290 271 260 265 267
162 169 172 174 174 173 173 173 171 171 170 169 172 176 184 187 182 168 166 165 164 167 177 221 280 287 284 284 287 287 287 289 280 266 271 279 289 295 289 280 274 272 269
163 167 174 177 174 175 176 176 174 174 174 172 174 174 164 152 160 165 174 180 187 201 224 255 275 281 284 285 285 287 287 280 277 266 265 268 279 285 281 279 279 277 275
162 163 170 174 174 175 176 176 177 176 176 175 176 173 160 153 164 176 187 197 210 227 243 258 270 276 280 282 283 284 282 279 271 258 267 267 278 282 279 277 275 271 270
164 169 171 171 172 173 174 176 178 178 178 180 180 174 172 178 190 202 209 218 229 241 251 259 268 273 277 280 281 280 279 282 266 258 257 266 274 278 278 275 273 271 268
180 181 176 174 176 174 174 181 180 181 184 185 187 190 188 196 217 237 234 233 239 246 251 260 269 274 276 277 279 281 286 269 263 260 257 266 273 277 278 276 272 270 268
193 194 185 182 182 177 182 178 179 184 187 188 191 198 195 198 222 241 240 233 237 244 254 267 276 282 283 280 285 289 279 274 270 264 265 272 280 285 286 286 279 273 270
196 191 190 187 185 180 181 172 180 186 189 197 201 206 201 202 235 251 248 250 253 261 271 286 297 297 291 284 284 285 279 276 267 268 274 284 293 301 305 306 301 291 284
204 197 190 189 185 183 180 178 181 186 192 198 204 203 187 179 188 196 206 254 269 283 289 295 302 310 318 315 310 309 307 299 292 288 290 302 316 324 324 320 315 309 302
206 203 187 183 185 181 177 179 181 188 193 194 187 180 165 154 152 130 94 53 15 358 358 3 0 3 4 360 358 351 340 336 333 333 323 330 338 343 343 338 332 328 325
205 203 186 177 179 173 173 173 175 180 173 158 147 143 138 125 112 93 71 53 40 34 39 43 31 25 17 6 357 350 344 343 341 341 340 345 355 4 10 10 6 2 355
161 175 171 170 165 163 163 161 147 138 126 115 105 98 98 95 89 81 68 54 40 36 41 42 26 27 20 7 350 340 339 341 343 342 347 0 360 10 15 13 9 4 359
139 134 148 152 145 143 132 118 105 99 96 92 89 83 82 82 82 77 68 56 45 44 37 40 23 17 13 358 337 325 328 333 339 350 3 9 3 8 10 9 6 1 354
150 143 130 126 126 119 109 101 95 90 88 88 85 81 79 77 78 79 69 55 51 49 35 30 29 21 7 349 326 316 316 322 329 6 6 5 2 6 9 3 3 355 349
131 128 121 117 118 116 109 102 95 86 83 81 80 80 78 73 71 73 65 49 47 47 32 21 15 12 7 341 323 316 304 308 325 5 360 360 1 5 7 1 356 347 345
114 115 119 123 125 123 121 115 108 99 93 84 77 75 73 70 65 62 59 48 45 49 37 23 9 4 353 348 343 321 316 327 349 336 353 356 359 1 358 352 344 334 335
123 118 118 122 119 117 114 109 107 111 97 86 79 69 65 64 60 63 59 55 46 45 35 27 23 9 346 3 349 330 335 333 342 336 320 343 352 351 337 334 324 324 331
129 129 126 121 117 117 117 113 111 100 86 76 71 67 61 66 63 61 59 60 51 48 33 20 24 25 345 331 354 42 3 313 309 297 313 331 339 319 313 317 311 320 318
134 125 124 122 121 121 122 127 129 126 120 114 107 92 72 65 64 60 57 57 49 41 29 5 23 1 352 336 331 30 233 246 292 307 303 301 304 304 296 302 303 298 301
131 125 123 119 115 111 109 117 115 110 110 110 103 94 77 62 58 57 56 49 38 26 14 4 355 349 336 320 315 305 290 261 235 267 294 304 302 291 289 285 283 285 289
124 120 121 118 112 110 108 108 116 120 121 119 113 106 89 70 51 43 49 41 27 11 355 345 338 337 327 322 312 303 300 297 303 288 296 305 300 290 281 280 283 284 286